Time,TemperatureF,DewpointF,PressureIn,WindDirection,WindDirectionDegrees,WindSpeedMPH,WindSpeedGustMPH,Humidity,HourlyPrecipIn,Conditions,Clouds,dailyrainin,SoftwareType,DateUTC
2013-04-16 00:05:00,63.1,61.0,30.01,ENE,65,3.0,4.0,92,0.00,,,0.00,weatherlink.com 1.10,2013-04-16 04:05:00,
2013-04-16 00:21:00,63.2,61.0,30.01,East,79,1.0,4.0,92,0.00,,,0.00,weatherlink.com 1.10,2013-04-16 04:21:00,
2013-04-16 00:35:00,63.1,61.0,30.01,ENE,75,3.0,4.0,92,0.00,,,0.00,weatherlink.com 1.10,2013-04-16 04:35:00,
2013-04-16 00:51:00,63.0,61.0,30.00,East,84,1.0,3.0,93,0.00,,,0.00,weatherlink.com 1.10,2013-04-16 04:51:00,
2013-04-16 01:05:00,63.1,61.0,30.00,East,80,3.0,4.0,93,0.00,,,0.00,weatherlink.com 1.10,2013-04-16 05:05:00,
2013-04-16 01:21:00,63.0,61.0,30.00,ENE,68,3.0,4.0,93,0.00,,,0.00,weatherlink.com 1.10,2013-04-16 05:21:00,
2013-04-16 01:35:00,62.9,61.0,30.00,ENE,72,2.0,4.0,93,0.00,,,0.00,weatherlink.com 1.10,2013-04-16 05:35:00,
2013-04-16 01:51:00,62.9,61.0,29.99,ENE,77,2.0,4.0,94,0.00,,,0.00,weatherlink.com 1.10,2013-04-16 05:51:00,
2013-04-16 02:06:00,63.0,61.0,29.99,ENE,66,2.0,3.0,94,0.00,,,0.00,weatherlink.com 1.10,2013-04-16 06:06:00,
2013-04-16 02:21:00,62.9,61.0,29.99,ENE,67,4.0,5.0,94,0.00,,,0.00,weatherlink.com 1.10,2013-04-16 06:21:00,
2013-04-16 02:36:00,62.7,61.0,29.99,ENE,68,2.0,4.0,95,0.00,,,0.00,weatherlink.com 1.10,2013-04-16 06:36:00,
2013-04-16 02:51:00,62.8,61.0,29.99,East,79,3.0,4.0,95,0.00,,,0.00,weatherlink.com 1.10,2013-04-16 06:51:00,
2013-04-16 03:07:00,62.7,61.0,29.99,ENE,68,3.0,3.0,95,0.00,,,0.00,weatherlink.com 1.10,2013-04-16 07:07:00,
2013-04-16 03:21:00,62.6,61.0,30.00,NNE,25,1.0,4.0,95,0.00,,,0.00,weatherlink.com 1.10,2013-04-16 07:21:00,
2013-04-16 03:36:00,62.2,61.0,30.00,NNE,32,4.0,5.0,95,0.00,,,0.00,weatherlink.com 1.10,2013-04-16 07:36:00,
2013-04-16 03:51:00,62.4,61.0,30.00,NE,53,4.0,4.0,96,0.00,,,0.00,weatherlink.com 1.10,2013-04-16 07:51:00,
2013-04-16 04:07:00,62.7,62.0,30.00,ENE,66,4.0,4.0,96,0.00,,,0.00,weatherlink.com 1.10,2013-04-16 08:07:00,
2013-04-16 04:22:00,62.8,61.0,30.00,NE,56,2.0,4.0,95,0.00,,,0.00,weatherlink.com 1.10,2013-04-16 08:22:00,
2013-04-16 04:37:00,63.0,62.0,30.01,NE,54,3.0,4.0,96,0.00,,,0.00,weatherlink.com 1.10,2013-04-16 08:37:00,
2013-04-16 04:52:00,63.1,62.0,30.01,ENE,59,4.0,5.0,95,0.00,,,0.00,weatherlink.com 1.10,2013-04-16 08:52:00,
2013-04-16 05:07:00,63.2,62.0,30.01,ENE,66,4.0,5.0,96,0.00,,,0.00,weatherlink.com 1.10,2013-04-16 09:07:00,
2013-04-16 05:22:00,63.3,62.0,30.01,ENE,63,2.0,4.0,96,0.00,,,0.00,weatherlink.com 1.10,2013-04-16 09:22:00,
2013-04-16 05:37:00,63.4,62.0,30.02,ENE,70,5.0,5.0,96,0.00,,,0.00,weatherlink.com 1.10,2013-04-16 09:37:00,
2013-04-16 05:52:00,63.5,62.0,30.02,ENE,57,3.0,4.0,96,0.00,,,0.00,weatherlink.com 1.10,2013-04-16 09:52:00,
2013-04-16 06:08:00,63.6,63.0,30.02,East,98,2.0,4.0,96,0.00,,,0.00,weatherlink.com 1.10,2013-04-16 10:08:00,
2013-04-16 06:23:00,63.5,62.0,30.02,East,87,2.0,3.0,96,0.00,,,0.00,weatherlink.com 1.10,2013-04-16 10:23:00,
2013-04-16 06:38:00,63.6,63.0,30.03,East,84,3.0,3.0,96,0.02,,,0.02,weatherlink.com 1.10,2013-04-16 10:38:00,
2013-04-16 06:53:00,63.5,62.0,30.03,ENE,66,3.0,5.0,96,0.04,,,0.04,weatherlink.com 1.10,2013-04-16 10:53:00,
2013-04-16 07:08:00,-999.0,-99.9,30.04,North,-999,-999.0,-999.0,-999,0.04,,,0.04,weatherlink.com 1.10,2013-04-16 11:08:00,
2013-04-16 07:23:00,-999.0,-99.9,30.05,North,-999,-999.0,-999.0,-999,0.04,,,0.04,weatherlink.com 1.10,2013-04-16 11:23:00,
2013-04-16 07:38:00,-999.0,-99.9,30.05,North,-999,-999.0,-999.0,-999,0.02,,,0.04,weatherlink.com 1.10,2013-04-16 11:38:00,
2013-04-16 07:54:00,-999.0,-99.9,30.06,North,-999,-999.0,-999.0,-999,0.00,,,0.04,weatherlink.com 1.10,2013-04-16 11:54:00,
2013-04-16 08:09:00,-999.0,-99.9,30.06,North,-999,-999.0,-999.0,-999,0.00,,,0.04,weatherlink.com 1.10,2013-04-16 12:09:00,
2013-04-16 08:24:00,64.1,63.0,30.06,ENE,72,3.0,4.0,96,0.00,,,0.04,weatherlink.com 1.10,2013-04-16 12:24:00,
2013-04-16 08:39:00,64.2,63.0,30.06,ENE,72,2.0,4.0,95,0.00,,,0.04,weatherlink.com 1.10,2013-04-16 12:39:00,
2013-04-16 08:54:00,64.6,63.0,30.06,East,86,0.0,2.0,95,0.00,,,0.04,weatherlink.com 1.10,2013-04-16 12:54:00,
2013-04-16 09:11:00,65.0,63.0,30.07,East,95,1.0,4.0,94,0.00,,,0.04,weatherlink.com 1.10,2013-04-16 13:11:00,
2013-04-16 09:25:00,65.1,63.0,30.07,ENE,58,3.0,4.0,93,0.00,,,0.04,weatherlink.com 1.10,2013-04-16 13:25:00,
2013-04-16 09:41:00,65.4,63.0,30.07,ESE,108,4.0,7.0,93,0.00,,,0.04,weatherlink.com 1.10,2013-04-16 13:41:00,
2013-04-16 09:55:00,66.1,64.0,30.07,ENE,65,6.0,8.0,92,0.00,,,0.04,weatherlink.com 1.10,2013-04-16 13:55:00,
2013-04-16 10:10:00,66.8,65.0,30.08,ENE,75,5.0,7.0,92,0.00,,,0.04,weatherlink.com 1.10,2013-04-16 14:10:00,
2013-04-16 10:25:00,67.6,64.0,30.08,ENE,67,5.0,8.0,89,0.00,,,0.04,weatherlink.com 1.10,2013-04-16 14:25:00,
2013-04-16 10:41:00,68.3,65.0,30.08,NE,47,8.0,8.0,88,0.00,,,0.04,weatherlink.com 1.10,2013-04-16 14:41:00,
2013-04-16 10:55:00,68.4,64.0,30.09,NE,41,6.0,8.0,87,0.00,,,0.04,weatherlink.com 1.10,2013-04-16 14:55:00,
2013-04-16 11:11:00,68.8,65.0,30.09,NNE,12,2.0,8.0,86,0.00,,,0.04,weatherlink.com 1.10,2013-04-16 15:11:00,
2013-04-16 11:26:00,69.5,65.0,30.09,ENE,77,4.0,9.0,84,0.00,,,0.04,weatherlink.com 1.10,2013-04-16 15:26:00,
2013-04-16 11:41:00,70.2,65.0,30.09,NNE,29,6.0,10.0,83,0.00,,,0.04,weatherlink.com 1.10,2013-04-16 15:41:00,
2013-04-16 11:56:00,71.1,65.0,30.09,ENE,65,7.0,9.0,81,0.00,,,0.04,weatherlink.com 1.10,2013-04-16 15:56:00,
2013-04-16 12:11:00,71.5,64.0,30.09,NNE,25,7.0,9.0,78,0.00,,,0.04,weatherlink.com 1.10,2013-04-16 16:11:00,
2013-04-16 12:26:00,71.8,64.0,30.08,NE,47,4.0,9.0,76,0.00,,,0.04,weatherlink.com 1.10,2013-04-16 16:26:00,
2013-04-16 12:42:00,72.2,64.0,30.08,NNE,21,5.0,9.0,75,0.00,,,0.04,weatherlink.com 1.10,2013-04-16 16:42:00,
2013-04-16 12:57:00,73.0,63.0,30.08,ENE,62,5.0,7.0,72,0.00,,,0.04,weatherlink.com 1.10,2013-04-16 16:57:00,
2013-04-16 13:12:00,73.8,63.0,30.07,SSE,156,4.0,8.0,70,0.00,,,0.04,weatherlink.com 1.10,2013-04-16 17:12:00,
2013-04-16 13:27:00,74.0,63.0,30.07,ESE,110,5.0,10.0,69,0.00,,,0.04,weatherlink.com 1.10,2013-04-16 17:27:00,
2013-04-16 13:42:00,74.9,64.0,30.06,SW,232,2.0,6.0,68,0.00,,,0.04,weatherlink.com 1.10,2013-04-16 17:42:00,
2013-04-16 13:57:00,74.3,63.0,30.06,ENE,60,6.0,11.0,67,0.00,,,0.04,weatherlink.com 1.10,2013-04-16 17:57:00,
2013-04-16 14:12:00,74.0,63.0,30.05,ESE,118,6.0,11.0,68,0.00,,,0.04,weatherlink.com 1.10,2013-04-16 18:12:00,
2013-04-16 14:27:00,75.2,63.0,30.05,ENE,65,8.0,10.0,66,0.00,,,0.04,weatherlink.com 1.10,2013-04-16 18:27:00,
2013-04-16 14:43:00,74.9,63.0,30.05,ENE,61,4.0,13.0,67,0.00,,,0.04,weatherlink.com 1.10,2013-04-16 18:43:00,
2013-04-16 14:58:00,74.9,63.0,30.05,East,88,4.0,9.0,67,0.00,,,0.04,weatherlink.com 1.10,2013-04-16 18:58:00,
2013-04-16 15:13:00,74.8,63.0,30.04,ENE,66,9.0,12.0,67,0.00,,,0.04,weatherlink.com 1.10,2013-04-16 19:13:00,
2013-04-16 15:28:00,74.6,63.0,30.04,ENE,70,4.0,10.0,68,0.00,,,0.04,weatherlink.com 1.10,2013-04-16 19:28:00,
2013-04-16 15:43:00,74.4,64.0,30.04,NNE,25,8.0,10.0,69,0.00,,,0.04,weatherlink.com 1.10,2013-04-16 19:43:00,
2013-04-16 15:58:00,73.8,63.0,30.04,East,82,8.0,13.0,70,0.00,,,0.04,weatherlink.com 1.10,2013-04-16 19:58:00,
2013-04-16 16:14:00,73.6,64.0,30.04,ENE,59,8.0,12.0,71,0.00,,,0.04,weatherlink.com 1.10,2013-04-16 20:14:00,
2013-04-16 16:29:00,74.3,63.0,30.04,East,82,3.0,11.0,68,0.00,,,0.04,weatherlink.com 1.10,2013-04-16 20:29:00,
2013-04-16 16:44:00,74.4,63.0,30.03,ESE,105,0.0,10.0,67,0.00,,,0.04,weatherlink.com 1.10,2013-04-16 20:44:00,
2013-04-16 16:59:00,74.5,61.0,30.04,SE,138,3.0,9.0,63,0.00,,,0.04,weatherlink.com 1.10,2013-04-16 20:59:00,
2013-04-16 17:14:00,74.8,61.0,30.03,South,177,6.0,9.0,62,0.00,,,0.04,weatherlink.com 1.10,2013-04-16 21:14:00,
2013-04-16 17:29:00,75.2,62.0,30.03,SE,135,2.0,9.0,63,0.00,,,0.04,weatherlink.com 1.10,2013-04-16 21:29:00,
2013-04-16 17:44:00,74.7,61.0,30.04,SSE,165,8.0,11.0,63,0.00,,,0.04,weatherlink.com 1.10,2013-04-16 21:44:00,
2013-04-16 17:59:00,73.8,62.0,30.04,SSW,195,4.0,10.0,66,0.00,,,0.04,weatherlink.com 1.10,2013-04-16 21:59:00,
2013-04-16 18:14:00,73.3,62.0,30.04,SE,135,3.0,9.0,67,0.00,,,0.04,weatherlink.com 1.10,2013-04-16 22:14:00,
2013-04-16 18:29:00,73.1,61.0,30.04,SSE,152,3.0,10.0,67,0.00,,,0.04,weatherlink.com 1.10,2013-04-16 22:29:00,
2013-04-16 18:45:00,72.7,60.0,30.03,NNE,33,3.0,8.0,65,0.00,,,0.04,weatherlink.com 1.10,2013-04-16 22:45:00,
2013-04-16 19:02:00,72.2,60.0,30.04,SE,132,2.0,6.0,66,0.00,,,0.04,weatherlink.com 1.10,2013-04-16 23:02:00,
2013-04-16 19:15:00,71.5,60.0,30.03,South,173,2.0,5.0,67,0.00,,,0.04,weatherlink.com 1.10,2013-04-16 23:15:00,
2013-04-16 19:31:00,69.9,60.0,30.04,SE,146,1.0,5.0,70,0.00,,,0.04,weatherlink.com 1.10,2013-04-16 23:31:00,
2013-04-16 19:45:00,68.8,59.0,30.04,ESE,113,0.0,2.0,72,0.00,,,0.04,weatherlink.com 1.10,2013-04-16 23:45:00,
2013-04-16 20:02:00,67.8,60.0,30.05,SE,139,0.0,1.0,75,0.00,,,0.04,weatherlink.com 1.10,2013-04-17 00:02:00,
2013-04-16 20:15:00,67.1,59.0,30.05,SSE,167,0.0,1.0,76,0.00,,,0.04,weatherlink.com 1.10,2013-04-17 00:15:00,
2013-04-16 20:31:00,66.3,59.0,30.05,SSW,198,0.0,1.0,78,0.00,,,0.04,weatherlink.com 1.10,2013-04-17 00:31:00,
2013-04-16 20:46:00,65.3,59.0,30.06,SSW,198,0.0,0.0,80,0.00,,,0.04,weatherlink.com 1.10,2013-04-17 00:46:00,
2013-04-16 21:02:00,64.1,59.0,30.06,SSE,147,1.0,1.0,84,0.00,,,0.04,weatherlink.com 1.10,2013-04-17 01:02:00,
2013-04-16 21:16:00,63.6,59.0,30.06,SE,146,0.0,1.0,85,0.00,,,0.04,weatherlink.com 1.10,2013-04-17 01:16:00,
2013-04-16 21:31:00,63.0,59.0,30.06,SSE,147,0.0,0.0,86,0.00,,,0.04,weatherlink.com 1.10,2013-04-17 01:31:00,
2013-04-16 21:46:00,62.7,59.0,30.06,SE,146,0.0,0.0,88,0.00,,,0.04,weatherlink.com 1.10,2013-04-17 01:46:00,
2013-04-16 22:02:00,62.4,59.0,30.06,SE,146,0.0,0.0,88,0.00,,,0.04,weatherlink.com 1.10,2013-04-17 02:02:00,
2013-04-16 22:16:00,61.9,59.0,30.06,SE,146,0.0,0.0,89,0.00,,,0.04,weatherlink.com 1.10,2013-04-17 02:16:00,
2013-04-16 22:32:00,61.5,59.0,30.06,SSE,167,1.0,1.0,91,0.00,,,0.04,weatherlink.com 1.10,2013-04-17 02:32:00,
2013-04-16 22:47:00,61.5,59.0,30.05,SSE,162,1.0,2.0,92,0.00,,,0.04,weatherlink.com 1.10,2013-04-17 02:47:00,
2013-04-16 23:02:00,61.4,59.0,30.05,South,186,0.0,1.0,92,0.00,,,0.04,weatherlink.com 1.10,2013-04-17 03:02:00,
2013-04-16 23:17:00,61.0,59.0,30.05,South,188,0.0,1.0,93,0.00,,,0.04,weatherlink.com 1.10,2013-04-17 03:17:00,
2013-04-16 23:32:00,61.0,59.0,30.04,South,191,1.0,2.0,93,0.00,,,0.04,weatherlink.com 1.10,2013-04-17 03:32:00,
2013-04-16 23:47:00,60.9,59.0,30.04,South,169,0.0,2.0,94,0.00,,,0.04,weatherlink.com 1.10,2013-04-17 03:47:00,